User: anonymous   Login
Location: Hoyos del Collado
(40.3594°N, 5.2003°W)
Time: 16:20:03
(UTC+00:00)
Language:

IRS-P2 Rocket - Orbit

View from above orbital plane
View from above orbital plane
View from above satellite
View from above satellite

Ground track
Ground track

The orbit data is extracted from the following two-line orbital elements,

1 23324U 94068B   24165.80265787  .00000039  00000-0  41042-4 0  9999
2 23324  98.9333 228.8527 0056772 204.8602 154.9835 14.17145665533651
Epoch (UTC): 13 June 2024 19:15:49
Eccentricity: 0.0056772
inclination: 98.9333°
perigee height: 794 km
apogee height: 876 km
right ascension of ascending node: 228.8527°
argument of perigee: 204.8602°
revolutions per day: 14.17145665
mean anomaly at epoch: 154.9835°
orbit number at epoch: 53365

The dashed part of the orbit path shows where the satellite is in the earth's shadow,  

DLR